CST,Max TemperatureF,Mean TemperatureF,Min TemperatureF,Max Dew PointF,MeanDew PointF,Min DewpointF,Max Humidity, Mean Humidity, Min Humidity, Max Sea Level PressureIn, Mean Sea Level PressureIn, Min Sea Level PressureIn, Max VisibilityMiles, Mean VisibilityMiles, Min VisibilityMiles, Max Wind SpeedMPH, Mean Wind SpeedMPH, Max Gust SpeedMPH,PrecipitationIn, CloudCover, Events, WindDirDegrees
2013-11-1,39,37,35,37,33,30,93,85,73,29.85,29.60,29.37,10,10,7,14,7,,0.01,8,Rain,319
2013-11-2,46,34,23,30,27,20,91,76,49,30.12,30.01,29.86,10,10,3,12,5,,0.00,6,Snow,335
2013-11-3,48,32,19,32,27,17,92,70,51,30.15,30.06,29.94,10,10,10,21,6,28,0.00,2,,142
2013-11-4,46,38,30,40,34,27,93,77,60,30.07,29.87,29.75,10,9,4,16,10,29,0.17,7,Rain,200
2013-11-5,35,30,24,26,24,21,92,77,61,30.21,30.15,30.07,10,10,2,9,2,,0.00,2,,247
2013-11-6,32,28,24,22,20,18,84,68,59,30.15,30.08,30.00,10,10,10,17,8,23,0.00,6,,312
2013-11-7,37,26,14,21,17,11,88,66,41,30.20,30.18,30.15,10,10,10,13,5,,0.00,4,,293
2013-11-8,37,24,10,31,24,6,93,85,60,30.19,29.86,29.58,10,6,0,15,5,25,0.06,6,Fog-Rain-Snow,123
2013-11-9,35,34,33,32,31,30,96,88,81,30.14,29.84,29.56,10,5,1,18,8,24,0.18,8,Snow,299
2013-11-10,37,28,19,30,25,12,87,75,57,30.26,30.15,30.05,10,8,1,22,12,30,0.01,7,Snow,299
2013-11-11,19,14,8,8,6,3,79,64,52,30.73,30.48,30.19,10,10,6,22,17,31,0.00,4,Snow,326
2013-11-12,28,18,9,9,6,3,81,60,39,30.75,30.60,30.33,10,10,8,12,6,18,0.00,1,Snow,257
2013-11-13,45,31,17,29,21,8,89,70,49,30.29,29.94,29.79,10,10,10,13,5,21,0.00,0,,211
2013-11-14,44,36,27,31,28,24,92,79,55,29.83,29.78,29.71,10,10,10,6,2,,0.00,5,,309
2013-11-15,43,38,32,35,32,28,93,83,62,29.81,29.73,29.62,10,9,2,8,2,,0.00,5,,193
2013-11-16,44,40,37,41,38,33,93,85,73,29.59,29.41,29.30,10,6,1,10,6,,0.06,7,Rain,146
2013-11-17,41,34,28,39,35,20,100,90,69,29.71,29.34,29.23,10,5,0,24,4,32,0.12,8,Fog-Rain-Snow,297
2013-11-18,28,22,15,19,17,11,84,73,66,30.28,30.04,29.66,10,7,1,23,16,32,0.00,8,Snow,309
2013-11-19,41,28,16,26,18,12,88,67,52,30.29,30.09,29.85,10,10,10,17,7,26,0.00,2,,151
2013-11-20,46,35,21,26,24,19,89,59,44,30.06,29.92,29.83,10,10,10,13,7,22,0.00,2,,178
2013-11-21,33,25,15,29,19,9,89,76,62,30.57,30.28,30.01,10,9,4,21,8,28,0.00,7,Snow,328
2013-11-22,19,11,3,11,6,-1,87,74,57,30.66,30.48,30.36,10,7,1,20,7,25,0.00,6,Snow,300
2013-11-23,12,3,-7,2,-4,-13,79,65,45,30.84,30.74,30.57,10,10,6,16,12,22,0.00,4,Snow,318
2013-11-24,35,14,-7,22,6,-12,80,62,49,30.69,30.21,29.75,10,10,10,13,5,30,0.00,4,,187
2013-11-25,36,28,21,28,22,5,82,67,50,30.03,29.85,29.67,10,9,3,26,11,34,0.00,8,Snow,293
2013-11-26,19,14,8,10,5,-1,79,66,54,30.43,30.18,29.97,10,8,1,25,15,34,0.00,6,Snow,327
2013-11-27,18,9,0,13,9,-5,84,77,65,30.42,30.21,30.07,10,5,0,8,5,,0.06,6,Fog-Snow,143
2013-11-28,19,8,-2,14,8,-8,87,79,71,30.55,30.33,30.06,10,8,1,12,3,,0.03,7,Snow,324
2013-11-29,24,10,-4,17,1,-9,85,78,68,30.56,30.42,30.13,10,6,0,13,2,18,0.00,6,Fog-Snow,152
2013-11-30,32,25,18,22,19,15,88,76,64,30.20,30.11,30.01,10,10,8,12,3,,0.00,6,,347